Location: Home
(42.5358°N, 72.7383°W)
Time: 12:54:36
(UTC-05:00)

A-11 Canister half - Pass Details

Date: 09 December 2021
Orbit: 1524 x 1684 km, 47.3° (Epoch: 26 January)

Event Time Altitude Azimuth Distance (km) Brightness Sun altitude
Rises 06:28:32 0° 296° (WNW) 4,922 - -7.5°
Exits shadow 06:31:10 - 293° (WNW) 4,122 10.5 -7.0°
Reaches altitude 10° 06:31:51 10° 292° (WNW) 3,918 10.4 -6.9°
Maximum altitude 06:41:17 49° 222° (SW) 2,017 9.6 -5.3°
Drops below altitude 10° 06:50:25 10° 151° (SSE) 3,790 12.1 -3.8°
Sets 06:53:35 0° 146° (SE) 4,750 12.9 -3.3°
